Le nostre stazioni meteo in Italia

Pubblicità
Il mio iltempo24.it
Threave, Gran Bretagna (99090): Temperatura & dewpoint: 18.06.2018 21:00:00 - 24.06.2018 21:00:00 (BST)Threave, Gran Bretagna (99090): Temperatura -20cm & Temperatura -100cm: 18.06.2018 21:00:00 - 24.06.2018 21:00:00 (BST)Threave, Gran Bretagna (99090): precipitazioni: 18.06.2018 21:00:00 - 24.06.2018 21:00:00 (BST)
Data & Tempo tt [°C] td [°C] tt -20cm [°C] tt -100cm [°C] rr [mm]
24.06.2018 21:00:00 - - - - -
24.06.2018 20:00:00 17,8 10,6 - - 0,0
24.06.2018 19:00:00 18,6 10,4 - - 0,0
24.06.2018 18:00:00 19,5 10,9 - - 0,0
24.06.2018 17:00:00 19,9 11,2 - - 0,0
24.06.2018 16:00:00 19,7 11,2 - - 0,0
24.06.2018 15:00:00 19,6 12,1 - - 0,0
24.06.2018 14:00:00 19,1 11,8 - - 0,0
24.06.2018 13:00:00 18,8 11,6 - - 0,0
24.06.2018 12:00:00 19,1 11,7 - - 0,0
24.06.2018 11:00:00 18,2 11,4 - - 0,0
24.06.2018 10:00:00 16,1 9,9 15,9 13,5 0,0
24.06.2018 09:00:00 12,4 10,5 - - 0,0
24.06.2018 08:00:00 9,0 9,0 - - 0,0
24.06.2018 07:00:00 6,8 6,6 - - 0,0
24.06.2018 06:00:00 6,3 6,1 - - 0,0
24.06.2018 05:00:00 5,5 5,1 - - 0,0
24.06.2018 04:00:00 6,2 5,8 - - 0,0
24.06.2018 03:00:00 6,9 6,4 - - 0,0
24.06.2018 02:00:00 7,7 7,1 - - 0,0
24.06.2018 01:00:00 8,4 7,1 - - 0,0
24.06.2018 00:00:00 9,2 7,5 - - 0,0
23.06.2018 23:00:00 9,8 7,5 - - 0,0
23.06.2018 22:00:00 12,4 7,9 - - 0,0
23.06.2018 21:00:00 14,7 7,7 - - 0,0
23.06.2018 20:00:00 15,8 6,7 - - 0,0
23.06.2018 19:00:00 16,9 7,3 - - 0,0
23.06.2018 18:00:00 19,3 9,2 - - 0,0
23.06.2018 17:00:00 18,2 8,3 - - 0,0
23.06.2018 16:00:00 17,6 8,9 - - 0,0
23.06.2018 15:00:00 16,6 9,0 - - 0,0
23.06.2018 14:00:00 17,0 8,5 - - 0,0
23.06.2018 13:00:00 17,3 8,7 - - 0,0
23.06.2018 12:00:00 15,8 9,6 - - 0,0
23.06.2018 11:00:00 14,1 9,0 - - 0,0
23.06.2018 10:00:00 12,5 8,3 16,0 13,5 0,0
23.06.2018 09:00:00 11,6 7,9 - - 0,0
23.06.2018 08:00:00 10,0 7,8 - - 0,0
23.06.2018 07:00:00 8,9 7,3 - - 0,0
23.06.2018 06:00:00 7,7 6,0 - - 0,0
23.06.2018 05:00:00 7,4 6,2 - - 0,0
23.06.2018 04:00:00 7,6 6,6 - - 0,0
23.06.2018 03:00:00 7,3 6,1 - - 0,0
23.06.2018 02:00:00 8,0 6,7 - - 0,0
23.06.2018 01:00:00 8,5 6,9 - - 0,0
23.06.2018 00:00:00 8,8 6,9 - - 0,0
22.06.2018 23:00:00 10,3 7,1 - - 0,0
22.06.2018 22:00:00 12,0 7,2 - - 0,0
22.06.2018 21:00:00 14,5 7,8 - - 0,0
22.06.2018 20:00:00 14,9 8,4 - - 0,0
22.06.2018 19:00:00 17,3 9,0 - - 0,0
22.06.2018 18:00:00 19,0 9,3 - - 0,0
22.06.2018 17:00:00 18,9 8,9 - - 0,0
22.06.2018 16:00:00 19,2 8,8 - - 0,0
22.06.2018 15:00:00 19,3 8,4 - - 0,0
22.06.2018 14:00:00 19,0 10,4 - - 0,0
22.06.2018 13:00:00 16,1 7,8 - - 0,0
22.06.2018 12:00:00 16,9 5,5 - - 0,0
22.06.2018 11:00:00 16,2 8,9 - - 0,0
22.06.2018 10:00:00 14,8 7,4 15,7 13,4 0,0
22.06.2018 09:00:00 12,6 7,5 - - 0,0
22.06.2018 08:00:00 10,1 7,1 - - 0,0
22.06.2018 07:00:00 8,2 6,6 - - 0,0
22.06.2018 06:00:00 6,9 5,8 - - 0,0
22.06.2018 05:00:00 7,5 5,6 - - 0,0
22.06.2018 04:00:00 8,0 5,9 - - 0,0
22.06.2018 03:00:00 7,2 5,3 - - 0,0
22.06.2018 02:00:00 7,7 5,0 - - 0,0
22.06.2018 01:00:00 9,0 5,8 - - 0,0
22.06.2018 00:00:00 9,9 6,0 - - 0,0
21.06.2018 23:00:00 10,2 5,7 - - 0,0
21.06.2018 22:00:00 11,4 5,2 - - 0,0
21.06.2018 21:00:00 13,1 5,4 - - 0,0
21.06.2018 20:00:00 14,5 6,0 - - 0,0
21.06.2018 19:00:00 15,0 6,0 - - 0,0
21.06.2018 18:00:00 15,6 6,3 - - 0,0
21.06.2018 17:00:00 15,6 6,6 - - 0,0
21.06.2018 16:00:00 15,6 6,1 - - 0,0
21.06.2018 15:00:00 15,9 6,6 - - 0,0
21.06.2018 14:00:00 15,6 6,4 - - 0,0
21.06.2018 13:00:00 15,3 5,6 - - 0,0
21.06.2018 12:00:00 13,6 4,9 - - 0,0
21.06.2018 11:00:00 13,8 5,1 - - 0,0
21.06.2018 10:00:00 13,2 6,2 15,5 13,4 0,0
21.06.2018 09:00:00 11,5 5,4 - - 0,0
21.06.2018 08:00:00 10,4 5,7 - - 0,0
21.06.2018 07:00:00 9,2 5,6 - - 0,0
21.06.2018 06:00:00 8,1 4,7 - - 0,0
21.06.2018 05:00:00 7,1 4,2 - - 0,0
21.06.2018 04:00:00 7,4 4,2 - - 0,0
21.06.2018 03:00:00 8,0 5,2 - - 0,0
21.06.2018 02:00:00 8,1 5,2 - - 0,0
21.06.2018 01:00:00 8,3 5,7 - - 0,0
21.06.2018 00:00:00 8,9 6,8 - - 0,0
20.06.2018 23:00:00 8,7 6,4 - - 0,2
20.06.2018 22:00:00 10,5 6,8 - - 0,0
20.06.2018 21:00:00 11,0 5,1 - - 0,0
20.06.2018 20:00:00 11,4 5,0 - - 0,0
20.06.2018 19:00:00 12,1 5,1 - - 0,0
20.06.2018 18:00:00 13,5 5,7 - - 0,0
20.06.2018 17:00:00 13,9 6,1 - - 0,0
20.06.2018 16:00:00 16,1 6,7 - - 0,0
20.06.2018 15:00:00 16,3 9,0 - - 0,0
20.06.2018 14:00:00 16,1 8,2 - - 0,0
20.06.2018 13:00:00 15,4 9,8 - - 0,0
20.06.2018 12:00:00 13,7 9,5 - - 0,0
20.06.2018 11:00:00 13,8 9,9 - - 0,0
20.06.2018 10:00:00 14,1 10,6 15,4 13,4 0,0
20.06.2018 09:00:00 15,8 13,7 - - 0,2
20.06.2018 08:00:00 13,9 13,5 - - 0,0
20.06.2018 07:00:00 13,8 13,5 - - 0,0
20.06.2018 06:00:00 13,7 13,4 - - 1,4
20.06.2018 05:00:00 14,0 13,6 - - 2,2
20.06.2018 04:00:00 14,5 14,0 - - 2,0
20.06.2018 03:00:00 15,0 14,2 - - 0,0
20.06.2018 02:00:00 14,3 13,5 - - 0,2
20.06.2018 01:00:00 14,3 13,9 - - 0,0
20.06.2018 00:00:00 13,8 13,6 - - 0,0
19.06.2018 23:00:00 13,7 13,5 - - 0,0
19.06.2018 22:00:00 11,7 11,5 - - 0,8
19.06.2018 21:00:00 10,8 10,4 - - 1,6
19.06.2018 20:00:00 11,0 10,4 - - 1,6
19.06.2018 19:00:00 10,7 10,0 - - 2,6
19.06.2018 18:00:00 10,7 9,4 - - 0,4
19.06.2018 17:00:00 13,1 7,3 - - 0,0
19.06.2018 16:00:00 13,8 6,7 - - 0,0
19.06.2018 15:00:00 14,8 7,1 - - 0,0
19.06.2018 14:00:00 13,8 6,6 - - 0,0
19.06.2018 13:00:00 13,5 7,3 - - 0,0
19.06.2018 12:00:00 13,2 8,3 - - 0,0
19.06.2018 11:00:00 13,0 7,4 - - 0,0
19.06.2018 10:00:00 13,1 8,0 15,2 13,4 0,0
19.06.2018 09:00:00 12,9 8,2 - - 0,0
19.06.2018 08:00:00 11,6 8,0 - - 0,0
19.06.2018 07:00:00 10,3 6,6 - - 0,0
19.06.2018 06:00:00 8,8 5,2 - - 0,0
19.06.2018 05:00:00 9,1 4,7 - - 0,0
19.06.2018 04:00:00 8,7 5,1 - - 0,0
19.06.2018 03:00:00 9,3 6,6 - - 0,0
19.06.2018 02:00:00 9,6 6,8 - - 0,0
19.06.2018 01:00:00 9,7 6,6 - - 0,0
19.06.2018 00:00:00 10,6 7,1 - - 0,0
18.06.2018 23:00:00 11,3 8,0 - - 0,0
18.06.2018 22:00:00 12,1 8,5 - - 0,0
18.06.2018 21:00:00 13,1 10,4 - - 0,0

tt = Temperatura
td = dewpoint
tt -20cm = Temperatura -20cm
tt -100cm = Temperatura -100cm
rr = precipitazioni

Stazioni seguenti

WeatherPro
AMSI
MeteoEarth